Unity

operational
NORAD ID: 25575 Int'l Des: 1998-069 Owner: JSC Country: US
LEOCIRCULAR

关于 Unity

正在加载描述...

实时位置

正在加载3D地球...

即将过境

高度历史

Altitude vs Time

uPlot chart will show altitude changes over time

两行轨道根数

1 25575U 98069F 26062.44686659 .00009386 00000-0 18180-3 0 9997
2 25575 51.6317 103.2200 0008211 152.5429 207.5995 15.48418100555023
Epoch: Mar 3, 2026 • Age: 22 hours

当前状态

高度 425.2 km
速度 7.66 km/s
星下点 -24.34°S, 162.81°E
发射日期 Dec 4, 1998
运行时间 27.2 years
类型 other

技术详情

分类 Payload
质量 9280.00 kg
干质量 9280.00 kg
总质量 11600.00 kg
长度 5.20 m
直径 4.40 m
跨度 5.20 m
形状 Cyl
制造商 BOHSV
平台类型 ISS Node
阶段状态 Attached in Orbit
所有者/国家 JSC/US

大型星座

Loading constellations...